CZ-4 DEB, 26132

Orbit data source: Space-Track

CZ-4 DEB, 26132 is space debris in SSO originally from a launch on Thu, 14 Oct 1999 UTC launched from the Taiyaun Space Center, China (TSC). Debris objects in space refer to the collection of defunct objects orbiting the Earth. Examples of debris include non-operational satellites, rocket bodies, and fragments generated from explosions, collisions, or faulty payload assembly.

Loading next visibility...
Identifier
26132, 1999-057U
Orbit
SSO
Country
Flag of CNCN / PRC
Related business
Manufacturer
Unknown
Mission
Spacecraft
Bus & Motor
Unknown
Mass
Unknown
Launch date (UTC)
1999-10-14 (26 years ago)
Launch vehicle
Unknown
Launch site
Taiyaun Space Center, China (TSC)
Object type
Payload
Rocket body
Debris
Shape & HBR
Unknown shape, 0.1 m
Radar Cross Section
Small (<0.1 m²)

Expand to show TLE details & history
Last TLE update: 10 hours ago

TLE from 10 hours ago
0 CZ-4 DEB
1 26132U 99057U   25289.13730050  .00007258  00000-0  16614-2 0  9991
2 26132  98.6510  10.4823 0105442 302.4757 120.3679 14.52561379332422
Epoch: 2025-10-16T03:17Z
TLE epoch observation values (Epoch: 2025-10-16T03:17:42.763Z)
Latitude
62.67327°
Longitude
-80.87727°
Altitude
766.442 km
Speed
7.457 km/s
True Right ascension
23h 33m 48s
True Declination
62° 31' 59"
Sunlit
Object was in full shadow at epoch
Visualization orbit readout
Latitude
Unknown
Longitude
Unknown
Altitude
Unknown
Speed
Unknown
Apparent Right ascension
Unknown
Apparent Declination
Unknown
Sunlit
N/A
Visualization observer readout
Local Sidereal Time
07:49:39
Azimuth
Unknown
Elevation
Unknown
Doppler factor
Unknown
Orbital elements
Apogee altitude
789.192 km
Perigee altitude
639.622 km
Semi-major axis
7,092.544 km
Eccentricity
0.01054
Inclination
98.651°
RAAN
10.4823°
Arg. of periapsis
302.4757°
True anomaly
121.40344°
Mean anomaly
120.3679°
Eccentric anomaly
120.88636°
Mean motion
3.63363 °/min
Orbital period
99.07 mins
BSTAR
0.0016614
Loading maneuver chart data...
Computing Atmospheric mass density...

Documentation

Showing up to 5 results
|